Weather Roundup
Issued by NWS

Home | Current Version | Previous Version | Graphics & Text | Print | Product List | Glossary Off
Versions: 1 2 3 4 5 6 7 8 9 10 11 12 13 14 15 16 17 18 19 20 21 22 23 24 25 26 27 28 29 30 31 32 33 34 35 36 37 38 39 40 41 42 43 44 45 46 47 48 49 50

030
NZUS93 KARX 210659
HRRWXR

CURRENT HOURLY OBSERVATIONS ACROSS
MUCH OF THE UPPER MISSISSIPPI VALLEY
NATIONAL WEATHER SERVICE LA CROSSE WI
100 AM CST SAT JAN 21 2017


...SOUTHEAST MINNESOTA...


CITY           SKY/WX    TMP DP  RH WIND       PRES   REMARKS
ROCHESTER      FOG       33  33 100 SE10      29.50F VSB 1/4 WCI  25
ROCHESTER/MAYO CLOUDY    35  35 100 E6        29.51F VSB 3/4 WCI  30
WINONA         CLOUDY    34  34 100 CALM      29.55F FOG
AUSTIN         FOG       34  34 100 E7        29.47F VSB 1/2 WCI  28
ALBERT LEA     FOG       36  36 100 E6        29.46F VSB 1/4 WCI  31
DODGE CENTER   FOG       34  34 100 CALM      29.49F VSB 1/2
PRESTON        FOG       33  32  97 E6        29.50F VSB 1/4 WCI  28
OWATONNA       CLOUDY    36  34  93 E8        29.48F FOG     WCI  29
FARIBAULT      NOT AVBL
$$

...ELSEWHERE IN MINNESOTA...


CITY           SKY/WX    TMP DP  RH WIND       PRES   REMARKS
MINNEAPOLIS    CLOUDY    35  33  92 SE8       29.52F FOG     WCI  29
INTNL FALLS    LGT SNOW  33  31  92 SE8       29.53S FOG     WCI  26
DULUTH         DRZL/FOG  34  34 100 SE8       29.54F VSB 1/4 WCI  27
RED WING       CLOUDY    36  36 100 SE6       29.53S FOG     WCI  31
REDWOOD FALLS  FOG       34  33  96 SE9       29.45F VSB 1/2 WCI  27
MANKATO        FOG       34  34 100 E8        29.48F VSB 1/2 WCI  27
WORTHINGTON    FOG       34  34 100 SE8       29.40F VSB 1   WCI  27
FAIRMONT       LGT RAIN  34  34 100 E8        29.44F VSB 1/2 WCI  27
$$

...SOUTHWEST WISCONSIN...


CITY           SKY/WX    TMP DP  RH WIND       PRES   REMARKS
LA CROSSE      CLOUDY    39  35  86 SE6       29.55F FOG     WCI  35
PRAIRIE DU CHI CLOUDY    36  35  96 CALM      29.53F FOG
BOSCOBEL       CLOUDY    37  36  96 NE6       29.55F FOG     WCI  32
LONE ROCK      CLOUDY    36  35  96 E5        29.57F FOG     WCI  32
PLATTEVILLE    CLOUDY    36  36 100 E10       29.54F VSB 1/4 WCI  29
FORT MC COY    CLOUDY    34  34 100 E3        29.57F FOG
CAMP DOUGLAS   FOG       34  34 100 E5        29.57F VSB 1/2 WCI  30
MAUSTON-NEW LI FOG       35  35 100 CALM      29.58S VSB 1/2
VIROQUA        CLOUDY    34  34 100 E8        29.53F VSB 1/4 WCI  27
WIS DELLS      FOG       34  34  99 NE3       29.57F VSB<1/4
$$

...ELSEWHERE IN WISCONSIN...


CITY           SKY/WX    TMP DP  RH WIND       PRES   REMARKS
MILWAUKEE      FOG       39  37  92 E6        29.61F VSB 1/4 WCI  35
MADISON        FOG       36  35  96 E5        29.58F VSB 1/2 WCI  32
GREEN BAY      LGT RAIN  35  35 100 NE7       29.65F VSB 1/4 WCI  29
EAU CLAIRE     CLOUDY    35  34  96 E6        29.55F FOG     WCI  30
BLACK RVR FLS  FOG       35  35 100 E3        29.56F VSB 1/2
MEDFORD        FOG       32  32  99 SE5       29.57F VSB 3/4 WCI  28
WAUSAU         CLOUDY    33  33 100 E6        29.59F FOG     WCI  28
WIS RAPIDS     FOG       34  34 100 E6        29.59F VSB 3/4 WCI  29
MARSHFIELD     FOG       33  33 100 E6        29.56F VSB 1/4 WCI  28
RICE LAKE      FOG       34  34  99 SE5       29.57F VSB 1   WCI  30
$$

...NORTHEAST IOWA...


CITY           SKY/WX    TMP DP  RH WIND       PRES   REMARKS
WATERLOO       FOG       37  36  96 E8        29.45F VSB 1/2 WCI  31
DUBUQUE        FOG       38  38 100 E9        29.51F VSB 1/4 WCI  31
DECORAH        FOG       36  36 100 E7        29.49F VSB<1/4 WCI  30
MASON CITY     FOG       34  34 100 E9        29.45F VSB 1/4 WCI  27
CHARLES CITY   FOG       36  36 100 E12       29.47F VSB 1/4 WCI  27
OELWEIN        MIX PCPN  37  36  93 E10       29.48F VSB<1/4 WCI  30
$$

...ELSEWHERE IN IOWA...


CITY           SKY/WX    TMP DP  RH WIND       PRES   REMARKS
DES MOINES     LGT RAIN  42  42 100 SE8       29.41F FOG
IOWA CITY      FOG       43  42  97 E7        29.49F VSB 3/4
FORT DODGE     CLOUDY    36  34  93 E5        29.42F WCI  32
MARSHALLTOWN   LGT RAIN  38  38 100 E10       29.42F VSB 1/4 WCI  31
CEDAR RAPIDS   FOG       39  39 100 E8        29.46F VSB 1/4 WCI  33
$$

...NORTHERN ILLINOIS...


CITY           SKY/WX    TMP DP  RH WIND       PRES   REMARKS
CHICAGO-OHARE  DRZL/FOG  42  42 100 SE6       29.59F VSB 3/4
CHICAGO-MIDWAY CLOUDY    46  45  96 S3        29.60F FOG
MOLINE         LGT RAIN  42  40  92 E6        29.50F VSB 3/4
ROCKFORD       FOG       42  41  96 SE6       29.58F VSB 3/4
PEORIA         PTCLDY    50  49  96 S13       29.55S
$$

NOTE: "FAIR" INDICATES FEW OR NO CLOUDS BELOW 12,000 FEET WITH NO
SIGNIFICANT WEATHER AND/OR OBSTRUCTIONS TO VISIBILITY. WIND
SPEEDS ARE IN MILES-PER-HOUR.




USA.gov is the U.S. government's official web portal to all federal, state and local government web resources and services.